Regional Weather Roundup
Issued by NWS

Home | Current Version | Previous Version | Graphics & Text | Print | Product List | Glossary On
Versions: 1 2 3 4 5 6 7 8 9 10 11 12 13 14 15 16 17 18 19 20 21 22 23 24 25 26 27 28 29 30 31 32 33 34 35 36 37 38 39 40 41 42 43 44 45 46 47 48 49 50
000
ASUS45 KCYS 220610
RWRWY

WYOMING REGIONAL WEATHER ROUNDUP
NATIONAL WEATHER SERVICE CHEYENNE WY
1100 PM MST WED FEB 21 2018

NOTE:  "FAIR" INDICATES FEW OR NO CLOUDS BELOW 12,000 FEET
WITH NO SIGNIFICANT WEATHER AND/OR OBSTRUCTIONS TO VISIBILITY.

WYZ001-220700-
YELLOWSTONE NATIONAL PARK

CITY           SKY/WX    TMP DP  RH WIND       PRES   REMARKS
LK YELLOWSTONE   N/A    -12 -17  78 NW3       29.94F
6HR MIN TEMP: -14; 6HR MAX TEMP:   9;

W YELLOWSTONE  NOT AVBL

$$
WYZ002>013-054>058-071-098>099-220700-
NORTHERN WYOMING

CITY           SKY/WX    TMP DP  RH WIND       PRES   REMARKS
JACKSON        CLOUDY    10   2  69 SE6       30.01F WCI   0
CODY           FAIR       1  -6  72 SW5       30.02F WCI  -9
GREYBULL       FAIR     -14 -16  91 S3        30.11S
6HR MIN TEMP: -14; 6HR MAX TEMP:   3;

WORLAND        FAIR      -9 -13  83 W3        30.07F
6HR MIN TEMP:  -9; 6HR MAX TEMP:  11;

SHERIDAN       FAIR     -10 -15  78 CALM      30.07S
6HR MIN TEMP: -11; 6HR MAX TEMP:   5;

BUFFALO        FAIR      20  -1  40 W16       30.00F WCI   6
6HR MIN TEMP:   3; 6HR MAX TEMP:  21;

GILLETTE       FAIR      10  -2  58 E9        30.07R WCI  -3
6HR MIN TEMP:   1; 6HR MAX TEMP:  15;

HULETT         FAIR      19   3  49 MISG      30.09F
NEWCASTLE      FAIR       3  -6  66 CALM      30.15F

$$
WYZ014>020-022>026-101>103-220700-
CENTRAL WYOMING

CITY           SKY/WX    TMP DP  RH WIND       PRES   REMARKS
BIG PINEY      MOCLDY   -11 -15  82 E5        30.02F WCI -23
6HR MIN TEMP: -12; 6HR MAX TEMP:  12;

PINEDALE       MOCLDY    -9 -15  77 NW7       30.03S WCI -24
DUBOIS           N/A    N/A N/A N/A MISG        N/A
LANDER         MOCLDY    -5  -8  87 CALM      30.03F
6HR MIN TEMP:  -5; 6HR MAX TEMP:  10;

RIVERTON       FAIR      -4 -11  72 NW6       30.04F WCI -16
6HR MIN TEMP:  -6; 6HR MAX TEMP:   7;

CASPER         FAIR       7   0  73 W13       30.06R WCI  -9
6HR MIN TEMP:   6; 6HR MAX TEMP:  19;

DOUGLAS        FAIR       4  -1  80 CALM      30.09F
6HR MIN TEMP:   1; 6HR MAX TEMP:  10;


$$
WYZ021-027>030-104>119-220700-
SOUTHERN WYOMING

CITY           SKY/WX    TMP DP  RH WIND       PRES   REMARKS
EVANSTON       FAIR       0  -5  79 E8        29.96F WCI -14
6HR MIN TEMP:   0; 6HR MAX TEMP:  12;

FORT BRIDGER   FAIR       0  -2  92 CALM      30.03S
ROCK SPRINGS   FAIR       4  -3  73 S5        30.01F WCI  -5
6HR MIN TEMP:   4; 6HR MAX TEMP:  14;

DIXON          CLOUDY    13   6  74 CALM      30.04F
RAWLINS        MOCLDY    -1  -7  75 CALM      30.02F
6HR MIN TEMP:  -1; 6HR MAX TEMP:  16;

SARATOGA       CLOUDY     3   0  85 CALM      30.01S
LARAMIE        FAIR       4   2  91 SW9       29.98F WCI -10
6HR MIN TEMP:   2; 6HR MAX TEMP:  14;

CHEYENNE       FAIR      12   8  84 S7        30.05F WCI   1
6HR MIN TEMP:  11; 6HR MAX TEMP:  18;

TORRINGTON     FAIR      11   9  92 E9        30.15F WCI  -2
6HR MIN TEMP:  11; 6HR MAX TEMP:  26;

PINE BLUFFS    FAIR       0  -4  85 MISG      30.12S

$$



USA.gov is the U.S. government's official web portal to all federal, state and local government web resources and services.